QPF
0.00 0.00 0.00 0.02 0.06 0.05 0.04 0.03 0.02 0.02 0.02 0.02 0.02 0.02 0.02 0.02 0.02 0.01 0.02 0.03 0.04 0.03 0.02 0.02 0.03 0.03 0.02 0.01 0.00 0.00 0.01 0.01 0.01 0.00 0.00 0.01 0.01 0.00 0.00 0.01 0.01 0.00 0.01
0.00 0.00 0.00 0.01 0.06 0.08 0.06 0.04 0.03 0.02 0.02 0.02 0.02 0.03 0.02 0.02 0.03 0.02 0.02 0.03 0.05 0.03 0.02 0.02 0.02 0.03 0.02 0.01 0.01 0.01 0.01 0.00 0.00 0.00 0.00 0.01 0.01 0.00 0.00 0.01 0.01 0.01 0.01
0.00 0.00 0.00 0.02 0.04 0.07 0.06 0.06 0.04 0.03 0.02 0.02 0.02 0.02 0.03 0.02 0.03 0.03 0.03 0.03 0.06 0.04 0.02 0.02 0.01 0.02 0.02 0.01 0.00 0.01 0.01 0.00 0.00 0.00 0.00 0.01 0.01 0.00 0.00 0.00 0.01 0.01 0.00
0.00 0.01 0.01 0.02 0.02 0.06 0.06 0.06 0.05 0.04 0.03 0.02 0.03 0.03 0.03 0.03 0.03 0.03 0.04 0.04 0.06 0.06 0.02 0.02 0.02 0.01 0.02 0.02 0.01 0.01 0.01 0.00 0.00 0.00 0.00 0.01 0.02 0.01 0.01 0.01 0.02 0.02 0.01
0.01 0.01 0.02 0.03 0.03 0.02 0.03 0.04 0.05 0.05 0.04 0.03 0.03 0.03 0.03 0.03 0.03 0.03 0.04 0.04 0.06 0.06 0.04 0.02 0.01 0.01 0.01 0.01 0.01 0.01 0.01 0.00 0.00 0.00 0.01 0.02 0.02 0.01 0.01 0.02 0.02 0.03 0.01
0.01 0.01 0.03 0.04 0.04 0.03 0.02 0.02 0.04 0.04 0.04 0.04 0.04 0.03 0.03 0.04 0.03 0.02 0.03 0.04 0.04 0.05 0.04 0.02 0.01 0.01 0.01 0.01 0.01 0.01 0.01 0.00 0.00 0.00 0.01 0.01 0.01 0.02 0.01 0.01 0.01 0.02 0.01
0.01 0.02 0.03 0.04 0.05 0.04 0.03 0.03 0.03 0.03 0.04 0.04 0.04 0.03 0.03 0.03 0.04 0.03 0.02 0.03 0.03 0.03 0.03 0.02 0.01 0.01 0.01 0.01 0.01 0.01 0.01 0.00 0.00 0.01 0.01 0.01 0.00 0.01 0.00 0.00 0.01 0.02 0.01
0.02 0.02 0.03 0.05 0.05 0.04 0.04 0.05 0.04 0.03 0.03 0.04 0.04 0.04 0.04 0.04 0.03 0.03 0.03 0.02 0.02 0.02 0.02 0.02 0.01 0.01 0.01 0.01 0.01 0.01 0.01 0.01 0.00 0.01 0.01 0.01 0.00 0.00 0.00 0.00 0.00 0.01 0.01
0.02 0.03 0.03 0.04 0.05 0.05 0.04 0.05 0.04 0.03 0.03 0.04 0.04 0.04 0.04 0.04 0.04 0.04 0.03 0.03 0.02 0.02 0.02 0.02 0.02 0.01 0.01 0.01 0.01 0.01 0.01 0.01 0.01 0.00 0.01 0.01 0.00 0.00 0.01 0.00 0.00 0.01 0.01
0.02 0.04 0.03 0.03 0.04 0.05 0.05 0.05 0.04 0.02 0.02 0.03 0.04 0.04 0.03 0.03 0.04 0.05 0.05 0.04 0.03 0.02 0.02 0.01 0.02 0.02 0.01 0.02 0.01 0.01 0.01 0.01 0.01 0.00 0.01 0.01 0.00 0.01 0.01 0.01 0.01 0.01 0.01
0.03 0.04 0.05 0.03 0.03 0.04 0.05 0.06 0.05 0.03 0.03 0.03 0.04 0.04 0.03 0.03 0.03 0.04 0.04 0.04 0.03 0.03 0.02 0.02 0.02 0.01 0.02 0.02 0.01 0.01 0.01 0.01 0.00 0.00 0.01 0.00 0.00 0.01 0.00 0.01 0.02 0.02 0.01
0.03 0.04 0.06 0.05 0.03 0.04 0.05 0.05 0.04 0.03 0.03 0.03 0.04 0.05 0.05 0.04 0.03 0.03 0.03 0.03 0.04 0.03 0.03 0.02 0.02 0.01 0.01 0.02 0.02 0.01 0.01 0.01 0.00 0.00 0.00 0.00 0.01 0.01 0.01 0.01 0.01 0.03 0.03
0.05 0.05 0.06 0.06 0.05 0.05 0.05 0.05 0.04 0.03 0.03 0.03 0.03 0.04 0.04 0.04 0.03 0.04 0.04 0.04 0.03 0.03 0.03 0.02 0.02 0.02 0.02 0.02 0.02 0.01 0.01 0.01 0.00 0.00 0.00 0.00 0.01 0.01 0.01 0.01 0.01 0.01 0.02
0.07 0.08 0.10 0.10 0.07 0.07 0.06 0.05 0.03 0.03 0.03 0.03 0.03 0.04 0.05 0.05 0.03 0.03 0.03 0.02 0.02 0.02 0.02 0.02 0.02 0.02 0.02 0.03 0.04 0.03 0.01 0.01 0.00 0.01 0.01 0.00 0.01 0.01 0.01 0.01 0.00 0.00 0.01
0.05 0.07 0.11 0.13 0.09 0.07 0.06 0.05 0.04 0.03 0.02 0.03 0.03 0.04 0.04 0.04 0.04 0.03 0.03 0.02 0.01 0.02 0.02 0.02 0.02 0.02 0.02 0.03 0.03 0.03 0.02 0.02 0.01 0.01 0.01 0.00 0.01 0.00 0.01 0.01 0.01 0.00 0.00
0.06 0.07 0.11 0.14 0.12 0.08 0.06 0.05 0.06 0.05 0.03 0.04 0.04 0.04 0.04 0.04 0.04 0.04 0.04 0.03 0.02 0.01 0.01 0.02 0.02 0.02 0.03 0.02 0.02 0.03 0.03 0.03 0.02 0.02 0.02 0.01 0.00 0.00 0.00 0.02 0.02 0.01 0.01
0.05 0.07 0.10 0.14 0.14 0.12 0.08 0.05 0.06 0.07 0.05 0.03 0.03 0.03 0.03 0.03 0.04 0.05 0.05 0.04 0.03 0.02 0.02 0.02 0.02 0.03 0.03 0.03 0.03 0.03 0.03 0.03 0.03 0.03 0.03 0.03 0.01 0.00 0.00 0.01 0.02 0.02 0.02
0.05 0.06 0.09 0.12 0.15 0.16 0.13 0.10 0.08 0.07 0.06 0.05 0.04 0.03 0.03 0.03 0.03 0.04 0.05 0.04 0.04 0.04 0.04 0.03 0.02 0.02 0.02 0.03 0.04 0.04 0.04 0.04 0.04 0.04 0.04 0.04 0.02 0.01 0.01 0.01 0.01 0.01 0.01
0.06 0.06 0.09 0.11 0.12 0.16 0.17 0.14 0.12 0.10 0.08 0.08 0.09 0.05 0.04 0.03 0.04 0.05 0.04 0.04 0.05 0.05 0.05 0.04 0.03 0.02 0.02 0.03 0.04 0.05 0.05 0.04 0.04 0.05 0.06 0.04 0.03 0.02 0.01 0.01 0.01 0.00 0.00
0.06 0.07 0.08 0.09 0.10 0.11 0.15 0.19 0.15 0.12 0.12 0.12 0.14 0.11 0.07 0.05 0.05 0.06 0.06 0.04 0.04 0.05 0.06 0.06 0.04 0.03 0.02 0.03 0.03 0.04 0.05 0.04 0.03 0.03 0.05 0.05 0.04 0.03 0.02 0.01 0.00 0.00 0.00
0.05 0.08 0.09 0.10 0.10 0.10 0.12 0.13 0.11 0.08 0.08 0.11 0.14 0.16 0.13 0.09 0.07 0.07 0.07 0.06 0.06 0.05 0.06 0.06 0.06 0.04 0.04 0.04 0.04 0.04 0.05 0.05 0.03 0.03 0.03 0.04 0.05 0.04 0.03 0.02 0.01 0.01 0.01
0.04 0.06 0.09 0.10 0.11 0.11 0.12 0.11 0.08 0.07 0.06 0.06 0.09 0.13 0.17 0.16 0.11 0.08 0.08 0.08 0.07 0.07 0.06 0.06 0.07 0.07 0.05 0.05 0.06 0.06 0.05 0.05 0.04 0.03 0.03 0.04 0.06 0.08 0.05 0.03 0.02 0.01 0.01
0.03 0.04 0.08 0.11 0.12 0.12 0.14 0.14 0.09 0.08 0.07 0.06 0.07 0.09 0.12 0.13 0.13 0.11 0.10 0.09 0.09 0.09 0.09 0.07 0.07 0.07 0.07 0.07 0.06 0.07 0.07 0.05 0.04 0.03 0.03 0.04 0.04 0.09 0.12 0.06 0.02 0.01 0.01
0.02 0.03 0.07 0.11 0.14 0.12 0.13 0.14 0.12 0.10 0.09 0.07 0.08 0.08 0.12 0.12 0.10 0.10 0.09 0.08 0.08 0.09 0.09 0.09 0.08 0.07 0.07 0.08 0.06 0.05 0.05 0.06 0.05 0.03 0.02 0.02 0.04 0.05 0.11 0.11 0.06 0.03 0.01
0.02 0.03 0.05 0.09 0.14 0.14 0.11 0.11 0.09 0.09 0.10 0.09 0.07 0.09 0.13 0.13 0.11 0.09 0.08 0.07 0.06 0.07 0.07 0.07 0.06 0.05 0.04 0.04 0.05 0.05 0.05 0.05 0.05 0.04 0.03 0.02 0.02 0.03 0.04 0.07 0.07 0.06 0.04
0.02 0.03 0.04 0.06 0.11 0.15 0.13 0.10 0.07 0.07 0.07 0.08 0.05 0.05 0.07 0.09 0.09 0.07 0.07 0.07 0.07 0.05 0.04 0.04 0.05 0.05 0.04 0.03 0.02 0.03 0.03 0.04 0.04 0.04 0.03 0.02 0.02 0.02 0.03 0.04 0.04 0.04 0.04
MSLP
1010.75 1010.95 1011.21 1011.54 1011.92 1012.33 1012.74 1013.13 1013.48 1013.79 1014.07 1014.32 1014.57 1014.84 1015.11 1015.40 1015.68 1015.93 1016.15 1016.33 1016.47 1016.60 1016.73 1016.88 1017.05 1017.23 1017.41 1017.56 1017.67 1017.72 1017.72 1017.69 1017.66 1017.64 1017.64 1017.68 1017.73 1017.79 1017.83 1017.83 1017.80 1017.73 1017.66
1010.60 1010.83 1011.13 1011.50 1011.93 1012.38 1012.82 1013.22 1013.58 1013.88 1014.15 1014.40 1014.67 1014.96 1015.27 1015.59 1015.91 1016.18 1016.41 1016.58 1016.72 1016.83 1016.95 1017.09 1017.25 1017.43 1017.61 1017.75 1017.85 1017.89 1017.87 1017.81 1017.75 1017.69 1017.68 1017.70 1017.75 1017.81 1017.85 1017.87 1017.86 1017.81 1017.76
1010.43 1010.68 1011.02 1011.45 1011.93 1012.42 1012.90 1013.33 1013.69 1013.99 1014.26 1014.51 1014.78 1015.08 1015.41 1015.75 1016.09 1016.38 1016.61 1016.79 1016.91 1017.01 1017.11 1017.24 1017.39 1017.56 1017.72 1017.86 1017.95 1017.97 1017.93 1017.86 1017.78 1017.71 1017.68 1017.70 1017.75 1017.81 1017.88 1017.91 1017.92 1017.91 1017.88
1010.26 1010.52 1010.90 1011.38 1011.92 1012.48 1013.00 1013.45 1013.83 1014.13 1014.39 1014.63 1014.90 1015.20 1015.53 1015.88 1016.23 1016.53 1016.77 1016.95 1017.08 1017.17 1017.26 1017.37 1017.51 1017.66 1017.81 1017.93 1018.00 1018.01 1017.97 1017.89 1017.80 1017.74 1017.71 1017.72 1017.78 1017.85 1017.93 1017.99 1018.02 1018.03 1018.03
1010.11 1010.39 1010.80 1011.33 1011.93 1012.54 1013.10 1013.59 1013.98 1014.29 1014.54 1014.77 1015.02 1015.32 1015.65 1016.00 1016.35 1016.66 1016.91 1017.11 1017.24 1017.34 1017.43 1017.54 1017.65 1017.79 1017.91 1018.01 1018.06 1018.06 1018.01 1017.93 1017.86 1017.80 1017.78 1017.81 1017.88 1017.96 1018.04 1018.11 1018.16 1018.18 1018.19
1010.01 1010.29 1010.73 1011.30 1011.94 1012.60 1013.20 1013.72 1014.13 1014.44 1014.69 1014.92 1015.16 1015.44 1015.76 1016.11 1016.47 1016.79 1017.06 1017.28 1017.43 1017.55 1017.65 1017.76 1017.86 1017.97 1018.06 1018.13 1018.15 1018.14 1018.09 1018.02 1017.96 1017.93 1017.93 1017.98 1018.05 1018.14 1018.23 1018.29 1018.34 1018.37 1018.38
1009.99 1010.26 1010.71 1011.30 1011.96 1012.64 1013.28 1013.81 1014.24 1014.56 1014.82 1015.05 1015.29 1015.56 1015.88 1016.24 1016.60 1016.94 1017.23 1017.47 1017.66 1017.81 1017.93 1018.03 1018.12 1018.20 1018.27 1018.30 1018.30 1018.26 1018.21 1018.16 1018.12 1018.11 1018.15 1018.22 1018.31 1018.40 1018.47 1018.53 1018.56 1018.57 1018.57
1010.05 1010.30 1010.73 1011.31 1011.98 1012.66 1013.29 1013.84 1014.28 1014.62 1014.90 1015.14 1015.40 1015.69 1016.02 1016.38 1016.75 1017.10 1017.42 1017.69 1017.91 1018.08 1018.22 1018.33 1018.42 1018.48 1018.50 1018.50 1018.46 1018.41 1018.35 1018.31 1018.30 1018.34 1018.41 1018.51 1018.61 1018.71 1018.77 1018.81 1018.81 1018.80 1018.77
1010.17 1010.39 1010.79 1011.33 1011.96 1012.61 1013.22 1013.76 1014.22 1014.59 1014.90 1015.19 1015.48 1015.80 1016.15 1016.52 1016.90 1017.27 1017.60 1017.89 1018.14 1018.34 1018.50 1018.62 1018.70 1018.74 1018.73 1018.69 1018.62 1018.55 1018.49 1018.46 1018.48 1018.56 1018.67 1018.81 1018.94 1019.04 1019.10 1019.12 1019.09 1019.04 1018.98
1010.32 1010.50 1010.85 1011.33 1011.90 1012.49 1013.06 1013.59 1014.05 1014.46 1014.83 1015.18 1015.53 1015.90 1016.28 1016.67 1017.05 1017.42 1017.75 1018.05 1018.31 1018.53 1018.70 1018.83 1018.91 1018.93 1018.90 1018.83 1018.74 1018.65 1018.59 1018.59 1018.64 1018.76 1018.93 1019.11 1019.27 1019.39 1019.45 1019.45 1019.39 1019.30 1019.20
1010.45 1010.60 1010.90 1011.30 1011.78 1012.30 1012.81 1013.31 1013.79 1014.24 1014.67 1015.10 1015.53 1015.96 1016.38 1016.79 1017.18 1017.54 1017.86 1018.15 1018.40 1018.63 1018.81 1018.95 1019.03 1019.05 1019.01 1018.92 1018.81 1018.72 1018.67 1018.68 1018.77 1018.94 1019.16 1019.39 1019.59 1019.74 1019.81 1019.79 1019.71 1019.58 1019.44
1010.52 1010.66 1010.90 1011.22 1011.61 1012.03 1012.48 1012.95 1013.43 1013.93 1014.44 1014.96 1015.48 1015.98 1016.46 1016.89 1017.28 1017.62 1017.92 1018.18 1018.42 1018.64 1018.82 1018.97 1019.06 1019.08 1019.05 1018.96 1018.86 1018.77 1018.73 1018.77 1018.89 1019.11 1019.37 1019.65 1019.90 1020.08 1020.16 1020.15 1020.05 1019.89 1019.72
1010.49 1010.62 1010.82 1011.08 1011.37 1011.71 1012.10 1012.54 1013.03 1013.57 1014.16 1014.77 1015.38 1015.96 1016.49 1016.95 1017.34 1017.67 1017.93 1018.17 1018.38 1018.58 1018.77 1018.92 1019.03 1019.08 1019.07 1019.00 1018.92 1018.84 1018.82 1018.88 1019.04 1019.28 1019.59 1019.91 1020.19 1020.40 1020.51 1020.50 1020.40 1020.23 1020.04
1010.32 1010.48 1010.66 1010.86 1011.09 1011.36 1011.69 1012.10 1012.59 1013.18 1013.83 1014.53 1015.23 1015.89 1016.48 1016.97 1017.37 1017.68 1017.93 1018.13 1018.32 1018.51 1018.69 1018.86 1018.99 1019.08 1019.10 1019.08 1019.02 1018.98 1018.98 1019.06 1019.23 1019.50 1019.82 1020.16 1020.48 1020.71 1020.84 1020.85 1020.76 1020.59 1020.38
1010.02 1010.22 1010.41 1010.58 1010.76 1010.99 1011.28 1011.66 1012.17 1012.78 1013.49 1014.26 1015.03 1015.77 1016.42 1016.95 1017.37 1017.68 1017.91 1018.10 1018.27 1018.45 1018.64 1018.83 1018.99 1019.12 1019.20 1019.22 1019.22 1019.21 1019.23 1019.33 1019.50 1019.76 1020.08 1020.43 1020.75 1020.99 1021.14 1021.17 1021.09 1020.93 1020.74
1009.59 1009.85 1010.07 1010.25 1010.42 1010.62 1010.90 1011.27 1011.77 1012.41 1013.16 1013.97 1014.80 1015.60 1016.30 1016.89 1017.34 1017.67 1017.91 1018.10 1018.27 1018.45 1018.65 1018.86 1019.07 1019.24 1019.38 1019.46 1019.51 1019.54 1019.59 1019.68 1019.85 1020.09 1020.38 1020.70 1020.99 1021.24 1021.39 1021.43 1021.38 1021.25 1021.07
1009.08 1009.40 1009.67 1009.88 1010.08 1010.29 1010.57 1010.94 1011.45 1012.09 1012.85 1013.69 1014.56 1015.39 1016.15 1016.78 1017.28 1017.65 1017.92 1018.13 1018.32 1018.51 1018.72 1018.96 1019.20 1019.43 1019.62 1019.77 1019.87 1019.95 1020.02 1020.11 1020.25 1020.45 1020.69 1020.96 1021.21 1021.43 1021.57 1021.63 1021.60 1021.50 1021.36
1008.53 1008.91 1009.24 1009.51 1009.76 1010.01 1010.32 1010.71 1011.21 1011.85 1012.60 1013.44 1014.32 1015.18 1015.97 1016.66 1017.21 1017.63 1017.95 1018.19 1018.40 1018.62 1018.85 1019.11 1019.39 1019.66 1019.91 1020.11 1020.27 1020.38 1020.48 1020.57 1020.68 1020.82 1021.00 1021.20 1021.40 1021.57 1021.69 1021.75 1021.75 1021.69 1021.59
1007.98 1008.42 1008.81 1009.16 1009.49 1009.81 1010.16 1010.58 1011.09 1011.72 1012.45 1013.27 1014.14 1015.00 1015.82 1016.54 1017.15 1017.63 1017.99 1018.28 1018.53 1018.76 1019.01 1019.29 1019.59 1019.89 1020.19 1020.44 1020.65 1020.81 1020.92 1021.02 1021.10 1021.19 1021.29 1021.41 1021.54 1021.66 1021.75 1021.81 1021.83 1021.81 1021.77
1007.47 1007.96 1008.43 1008.86 1009.28 1009.69 1010.12 1010.58 1011.11 1011.72 1012.43 1013.21 1014.05 1014.90 1015.72 1016.47 1017.12 1017.65 1018.07 1018.40 1018.67 1018.92 1019.18 1019.46 1019.77 1020.10 1020.42 1020.72 1020.98 1021.18 1021.33 1021.42 1021.48 1021.53 1021.57 1021.61 1021.67 1021.72 1021.78 1021.83 1021.87 1021.89 1021.89
1007.04 1007.57 1008.10 1008.64 1009.16 1009.68 1010.19 1010.72 1011.28 1011.89 1012.56 1013.31 1014.10 1014.92 1015.73 1016.49 1017.16 1017.73 1018.19 1018.54 1018.83 1019.09 1019.34 1019.61 1019.91 1020.25 1020.60 1020.94 1021.24 1021.49 1021.67 1021.78 1021.83 1021.84 1021.82 1021.80 1021.79 1021.79 1021.81 1021.85 1021.89 1021.94 1021.99
1006.69 1007.25 1007.86 1008.49 1009.13 1009.77 1010.38 1010.99 1011.59 1012.21 1012.87 1013.57 1014.32 1015.10 1015.88 1016.62 1017.30 1017.88 1018.35 1018.72 1019.01 1019.25 1019.49 1019.74 1020.03 1020.37 1020.73 1021.10 1021.44 1021.73 1021.95 1022.09 1022.14 1022.13 1022.08 1022.01 1021.94 1021.90 1021.88 1021.89 1021.94 1022.00 1022.07
1006.44 1007.03 1007.71 1008.43 1009.19 1009.94 1010.66 1011.36 1012.02 1012.66 1013.31 1013.98 1014.69 1015.42 1016.16 1016.88 1017.53 1018.11 1018.57 1018.93 1019.20 1019.43 1019.63 1019.86 1020.13 1020.46 1020.83 1021.22 1021.60 1021.93 1022.19 1022.36 1022.44 1022.43 1022.36 1022.25 1022.15 1022.06 1022.01 1022.00 1022.03 1022.10 1022.18
1006.28 1006.91 1007.64 1008.45 1009.30 1010.16 1010.99 1011.78 1012.50 1013.18 1013.84 1014.49 1015.16 1015.85 1016.54 1017.22 1017.84 1018.38 1018.82 1019.16 1019.41 1019.60 1019.78 1019.98 1020.23 1020.54 1020.92 1021.33 1021.74 1022.11 1022.41 1022.62 1022.72 1022.73 1022.66 1022.54 1022.41 1022.30 1022.22 1022.19 1022.20 1022.25 1022.31
1006.22 1006.87 1007.64 1008.52 1009.45 1010.40 1011.32 1012.19 1012.97 1013.70 1014.37 1015.01 1015.65 1016.30 1016.95 1017.58 1018.16 1018.67 1019.08 1019.38 1019.61 1019.77 1019.93 1020.10 1020.34 1020.65 1021.03 1021.45 1021.89 1022.30 1022.63 1022.88 1023.01 1023.04 1022.98 1022.87 1022.74 1022.61 1022.52 1022.46 1022.44 1022.46 1022.50
1006.24 1006.91 1007.71 1008.62 1009.60 1010.61 1011.59 1012.51 1013.35 1014.11 1014.80 1015.45 1016.07 1016.69 1017.30 1017.89 1018.43 1018.90 1019.28 1019.56 1019.77 1019.92 1020.07 1020.24 1020.47 1020.78 1021.17 1021.60 1022.06 1022.49 1022.86 1023.13 1023.30 1023.36 1023.33 1023.23 1023.11 1022.99 1022.88 1022.80 1022.75 1022.73 1022.72
Thickness
5741 5740 5738 5737 5736 5736 5735 5735 5734 5734 5734 5733 5733 5733 5732 5732 5731 5731 5731 5731 5731 5731 5731 5731 5730 5730 5730 5730 5730 5729 5729 5728 5728 5727 5727 5727 5726 5726 5725 5725 5724 5724 5723
5740 5737 5735 5733 5733 5732 5732 5731 5731 5730 5730 5730 5730 5730 5729 5729 5729 5728 5728 5728 5728 5728 5728 5728 5728 5727 5727 5727 5727 5726 5726 5726 5725 5725 5724 5724 5723 5723 5722 5722 5722 5721 5720
5737 5733 5731 5730 5729 5728 5728 5727 5727 5726 5726 5726 5726 5726 5726 5726 5726 5726 5725 5725 5725 5725 5725 5725 5724 5724 5724 5723 5723 5723 5723 5723 5723 5722 5722 5721 5720 5720 5720 5719 5719 5718 5717
5732 5729 5727 5725 5725 5724 5724 5723 5723 5722 5722 5722 5723 5723 5723 5723 5723 5723 5722 5722 5722 5722 5722 5721 5721 5721 5720 5720 5720 5720 5720 5720 5720 5720 5720 5719 5718 5717 5717 5716 5716 5715 5714
5727 5724 5722 5721 5720 5720 5720 5719 5718 5718 5718 5718 5719 5719 5719 5719 5719 5719 5719 5719 5719 5718 5718 5718 5718 5717 5717 5717 5717 5717 5717 5717 5718 5718 5718 5717 5715 5714 5713 5713 5712 5712 5711
5721 5719 5717 5716 5716 5715 5715 5715 5714 5714 5714 5714 5714 5714 5714 5714 5715 5715 5715 5715 5715 5715 5715 5714 5714 5714 5713 5713 5713 5714 5714 5715 5715 5715 5715 5714 5712 5711 5710 5709 5709 5708 5708
5714 5713 5711 5711 5711 5711 5710 5710 5710 5710 5709 5709 5709 5709 5710 5710 5710 5711 5711 5711 5711 5711 5711 5711 5711 5710 5710 5710 5710 5710 5711 5711 5712 5713 5712 5710 5709 5708 5707 5706 5705 5705 5704
5708 5707 5706 5706 5706 5706 5705 5705 5705 5705 5705 5704 5705 5705 5706 5706 5706 5706 5707 5707 5708 5708 5708 5708 5707 5707 5707 5707 5707 5707 5708 5708 5709 5709 5708 5706 5705 5704 5703 5702 5702 5701 5701
5702 5702 5700 5700 5700 5700 5700 5700 5700 5700 5700 5700 5700 5701 5702 5702 5702 5702 5703 5703 5704 5704 5704 5704 5704 5704 5703 5703 5704 5704 5704 5705 5705 5706 5704 5702 5701 5700 5699 5698 5698 5697 5697
5695 5695 5695 5695 5695 5695 5695 5695 5695 5695 5695 5696 5696 5697 5697 5698 5698 5698 5699 5699 5700 5700 5700 5700 5701 5700 5700 5700 5700 5700 5701 5701 5702 5702 5700 5699 5697 5696 5695 5695 5694 5694 5693
5686 5688 5689 5690 5690 5690 5690 5689 5690 5690 5691 5691 5692 5693 5693 5694 5694 5694 5695 5695 5696 5696 5697 5697 5697 5697 5697 5697 5697 5697 5697 5697 5698 5698 5696 5695 5694 5693 5692 5691 5691 5690 5689
5677 5680 5683 5684 5685 5685 5685 5684 5684 5685 5686 5687 5688 5689 5690 5690 5691 5691 5691 5692 5692 5693 5693 5694 5694 5694 5693 5693 5693 5693 5694 5694 5694 5694 5692 5691 5690 5689 5688 5687 5686 5686 5685
5670 5673 5676 5678 5679 5679 5679 5680 5680 5681 5682 5683 5685 5686 5686 5686 5687 5687 5688 5688 5689 5689 5690 5691 5690 5690 5690 5690 5690 5690 5690 5691 5691 5690 5688 5687 5687 5686 5684 5683 5682 5682 5681
5662 5665 5668 5671 5672 5673 5674 5675 5675 5676 5677 5679 5680 5681 5682 5682 5683 5684 5684 5685 5685 5686 5686 5687 5687 5687 5687 5687 5687 5687 5687 5688 5687 5686 5684 5684 5683 5682 5680 5679 5678 5678 5677
5655 5657 5660 5663 5665 5666 5667 5669 5670 5672 5673 5674 5675 5676 5677 5678 5679 5679 5680 5681 5682 5682 5683 5683 5684 5684 5684 5684 5683 5683 5684 5684 5683 5682 5680 5679 5679 5677 5676 5675 5674 5674 5673
5649 5650 5652 5655 5657 5659 5660 5662 5665 5666 5667 5669 5670 5671 5672 5673 5674 5675 5676 5676 5677 5678 5679 5679 5680 5680 5680 5679 5679 5679 5679 5679 5679 5678 5676 5675 5674 5673 5672 5671 5670 5669 5669
5642 5644 5645 5647 5649 5651 5652 5655 5657 5659 5662 5663 5664 5666 5667 5668 5670 5670 5671 5672 5673 5674 5674 5674 5675 5675 5675 5675 5674 5674 5674 5674 5674 5673 5672 5670 5669 5668 5667 5666 5666 5665 5664
5634 5636 5637 5640 5640 5642 5644 5646 5649 5652 5655 5656 5658 5659 5661 5663 5664 5665 5666 5667 5668 5668 5668 5669 5669 5669 5669 5668 5667 5668 5668 5668 5668 5668 5667 5666 5664 5663 5662 5661 5661 5660 5659
5627 5628 5629 5630 5631 5634 5635 5637 5641 5644 5647 5649 5651 5653 5655 5656 5658 5659 5660 5661 5662 5662 5662 5663 5662 5663 5662 5661 5661 5661 5661 5661 5661 5661 5661 5660 5659 5658 5657 5656 5655 5654 5653
5620 5621 5621 5621 5623 5625 5628 5630 5632 5635 5638 5642 5644 5645 5647 5649 5651 5653 5654 5654 5655 5656 5656 5656 5656 5656 5655 5655 5655 5653 5653 5653 5654 5655 5655 5654 5653 5652 5651 5650 5649 5649 5647
5611 5612 5613 5613 5615 5617 5619 5622 5624 5627 5630 5634 5636 5638 5640 5642 5644 5645 5647 5648 5648 5648 5649 5650 5649 5647 5647 5647 5645 5643 5644 5646 5646 5648 5648 5648 5647 5646 5645 5644 5643 5643 5641
5602 5603 5604 5605 5607 5609 5612 5616 5619 5621 5623 5626 5628 5630 5632 5634 5636 5638 5639 5640 5641 5641 5641 5643 5642 5640 5639 5639 5637 5635 5633 5633 5636 5640 5640 5640 5640 5639 5638 5638 5637 5636 5635
5595 5595 5597 5597 5599 5602 5605 5609 5611 5613 5614 5617 5620 5622 5625 5626 5629 5630 5632 5633 5634 5634 5634 5635 5635 5633 5630 5631 5631 5630 5627 5625 5625 5630 5632 5632 5632 5632 5631 5630 5630 5629 5628
5588 5589 5590 5591 5593 5595 5598 5603 5604 5606 5607 5611 5614 5615 5617 5618 5620 5622 5624 5625 5626 5627 5627 5627 5627 5626 5624 5623 5623 5624 5624 5623 5619 5618 5621 5623 5624 5624 5623 5623 5622 5622 5620
5581 5582 5583 5584 5586 5588 5591 5596 5597 5599 5601 5604 5606 5607 5608 5609 5611 5613 5615 5617 5618 5619 5619 5619 5619 5619 5618 5617 5616 5615 5615 5616 5615 5612 5611 5612 5613 5614 5614 5614 5613 5613 5612
5574 5575 5576 5578 5579 5582 5584 5588 5591 5592 5593 5595 5596 5598 5599 5600 5602 5603 5606 5608 5610 5610 5610 5610 5610 5611 5610 5609 5608 5608 5607 5607 5607 5606 5604 5603 5602 5603 5605 5605 5604 5604 5604